Regional Weather Roundup
Issued by NWS

Home | Current Version | Previous Version | Text Only | Print | Product List | Glossary On
Versions: 1 2 3 4 5 6 7 8 9 10 11 12 13 14 15 16 17 18 19 20 21 22 23 24 25 26 27 28 29 30 31 32 33 34 35 36 37 38 39 40 41 42 43 44 45 46 47 48 49 50
000
ASUS45 KBOU 281807
RWRCO

WEATHER ROUNDUP FOR COLORADO
NATIONAL WEATHER SERVICE DENVER/BOULDER CO
1200 PM MDT SAT MAR 28 2015

NOTE: "FAIR" INDICATES FEW OR NO CLOUDS BELOW 12000 FEET WITH NO
SIGNIFICANT WEATHER AND/OR OBSTRUCTIONS TO VISIBILITY.

COZ001>005-013-030-031-281900-
...NORTHWEST COLORADO...

CITY           SKY/WX    TMP DP  RH WIND       PRES   REMARKS
CRAIG          MOSUNNY   65  29  25 W9        30.17F
HAYDEN         SUNNY     61  27  27 NW9       30.19F
MEEKER         SUNNY     65  25  22 W3        30.19F
MOUNT WERNER   NOT AVBL
STEAMBOAT SPGS SUNNY     56  28  32 SW5       30.20F
WALDEN         SUNNY     57  19  23 SW16G25   30.21F
$$

COZ006>008-011-281900-
...WEST CENTRAL VALLEYS...

CITY           SKY/WX    TMP DP  RH WIND       PRES   REMARKS
GRAND JUNCTION SUNNY     65  27  23 CALM      30.17F
MONTROSE       SUNNY     67  26  21 CALM      30.22F
EAGLE          SUNNY     59  27  29 CALM      30.24F
RIFLE          SUNNY     62  28  27 CALM      30.20F
DELTA          SUNNY     66  27  22 CALM      30.19F
NUCLA          SUNNY     63  28  27 N3        30.27F
$$

COZ017>023-064>068-281900-
...SOUTHWEST COLORADO...

CITY           SKY/WX    TMP DP  RH WIND       PRES   REMARKS
DURANGO        SUNNY     65  22  19 SW7       30.26F
CORTEZ         SUNNY     68  22  17 MISG      30.24F
PAGOSA SPRINGS SUNNY     61  17  18 SE3       30.30F
TELLURIDE      SUNNY     56  18  22 W8        30.38F
WOLF CREEK PAS SUNNY     41  14  33 S8G20     30.51S
$$

COZ009-010-012-014-032>034-037-058>063-281900-
...CENTRAL COLORADO...

CITY           SKY/WX    TMP DP  RH WIND       PRES   REMARKS
ASPEN          SUNNY     61  21  21 N16G26    30.26S
BUENA VISTA    SUNNY     63  15  15 SW17      30.23F
COPPER MTN     SUNNY     43  10  26 W20G31    30.42F
BERTHOUD PASS  FAIR      32  28  86 W30G43    30.41R WCI  18
COTTONWOOD PAS SUNNY     54  10  17 W14G30    30.33F
GUNNISON       SUNNY     52  23  32 CALM      30.33F
KREMMLING      SUNNY     61  21  21 SW12G18   30.24F
LEADVILLE      SUNNY     48  14  25 NW12G21   30.33F
SALIDA         SUNNY     64  21  18 SW10G22   30.30F
SUNLIGHT       SUNNY     48  23  37 W3        30.45S
WILKERSON PASS SUNNY     48  19  32 SW6       30.41S
$$

COZ069>075-281900-
...SAN LUIS VALLEY/SANGRE DE CRISTO MOUNTAINS...

CITY           SKY/WX    TMP DP  RH WIND       PRES   REMARKS
ALAMOSA        SUNNY     60  18  19 CALM      30.28F
LA VETA PASS   SUNNY     50  23  34 S10G23    30.37F
SAGUACHE       SUNNY     59  23  25 SE7       30.29F
$$

COZ035-036-038>040-281900-
...NORTHERN COLORADO FRONT RANGE...

CITY           SKY/WX    TMP DP  RH WIND       PRES   REMARKS
DENVER INTL AP MOSUNNY   73  26  17 SW12      30.05F
DMNS CITY PARK   N/A     73  23  15 E2        30.04F
AURORA         MOSUNNY   70  26  19 SW10      30.07F
FRONT RANGE AP SUNNY     73  27  17 CALM      30.07F
ERIE MUNI ARPT SUNNY     74  20  13 CALM      30.03F
BOULDER MUN AP SUNNY     73  23  15 S5        30.03F
CENTENNIAL     MOSUNNY   70  23  17 S5        30.08F
BROOMFIELD     MOSUNNY   73  21  14 SW22      30.07F
FORT COLLINS   SUNNY     72  36  26 S6        30.02F
LONGMONT       SUNNY     77  22  12 W15G26    30.03F
$$

COZ041-046-047-076>085-087-088-281900-
...PIKES PEAK/PALMER DIVIDE AND SOUTHERN FOOTHILLS...

CITY           SKY/WX    TMP DP  RH WIND       PRES   REMARKS
COLO. SPRINGS  MOSUNNY   69  19  15 SE10      30.13F
A. F. ACADEMY  SUNNY     67  19  16 S12       30.13F
ELLICOTT       SUNNY    N/A N/A N/A S9        30.12F
FALCON         SUNNY     67  16  14 S7G18     30.18F
FORT CARSON    SUNNY     71  24  17 SE15G23   30.09F
LIMON          SUNNY     69  23  17 MISG      30.09F
MONUMENT HILL  SUNNY     64  19  17 SW7       30.15F
TRINIDAD       SUNNY     71  18  13 W5        30.14F
$$

COZ042>045-048>051-090-091-281900-
...NORTHEAST COLORADO...

CITY           SKY/WX    TMP DP  RH WIND       PRES   REMARKS
GREELEY ARPT   SUNNY     73  30  20 S10G16    30.00F
AKRON          SUNNY     70  27  20 SW5       30.02F
BURLINGTON     SUNNY     74  23  15 VRB3      30.03F
WRAY           SUNNY     75  29  18 S8        29.99F
STERLING       SUNNY     73  34  23 S7        29.97F
HOLYOKE        NOT AVBL
FORT MORGAN    SUNNY    N/A N/A N/A W5        30.02F
$$

COZ086-089-092>099-281900-
...SOUTHEAST COLORADO...

CITY           SKY/WX    TMP DP  RH WIND       PRES   REMARKS
PUEBLO         SUNNY     73  22  14 VRB3      30.07F
LA JUNTA       SUNNY     77  26  15 NW8       30.05F
LAMAR          SUNNY     74  31  20 NW7       30.02F
SPRINGFIELD      N/A     76  26  15 MISG      30.05F
$$



USA.gov is the U.S. government's official web portal to all federal, state and local government web resources and services.